Searsport Weather Center

Moon Phase Calendar



Online Cameras

 


      

Current Conditions in Belfast
11/29/2021 3:00:56 AM

34°F
Feels Like 29
Clouds
Humidity
76%
Pressure
29.85"
Wind
5.1 mph (NNE)
Dew Point
28°F
UV Index
0/10 (Low)
Visibility
6 mi

Hourly Forecast

Date & Time Mon, Nov 29
3:00 AM
Mon, Nov 29
4:00 AM
Mon, Nov 29
5:00 AM
Mon, Nov 29
6:00 AM
Mon, Nov 29
7:00 AM
Mon, Nov 29
8:00 AM
Mon, Nov 29
9:00 AM
Mon, Nov 29
10:00 AM
Mon, Nov 29
11:00 AM
Mon, Nov 29
12:00 PM
Mon, Nov 29
1:00 PM
Mon, Nov 29
2:00 PM
Mon, Nov 29
3:00 PM
Mon, Nov 29
4:00 PM
Mon, Nov 29
5:00 PM
Mon, Nov 29
6:00 PM
Mon, Nov 29
7:00 PM
Mon, Nov 29
8:00 PM
Mon, Nov 29
9:00 PM
Mon, Nov 29
10:00 PM
Mon, Nov 29
11:00 PM
Tue, Nov 30
12:00 AM
Tue, Nov 30
1:00 AM
Tue, Nov 30
2:00 AM
Tue, Nov 30
3:00 AM
Tue, Nov 30
4:00 AM
Tue, Nov 30
5:00 AM
Tue, Nov 30
6:00 AM
Tue, Nov 30
7:00 AM
Tue, Nov 30
8:00 AM
Tue, Nov 30
9:00 AM
Tue, Nov 30
10:00 AM
Tue, Nov 30
11:00 AM
Tue, Nov 30
12:00 PM
Tue, Nov 30
1:00 PM
Tue, Nov 30
2:00 PM
Tue, Nov 30
3:00 PM
Tue, Nov 30
4:00 PM
Tue, Nov 30
5:00 PM
Tue, Nov 30
6:00 PM
Tue, Nov 30
7:00 PM
Tue, Nov 30
8:00 PM
Tue, Nov 30
9:00 PM
Tue, Nov 30
10:00 PM
Tue, Nov 30
11:00 PM
Wed, Dec 1
12:00 AM
Wed, Dec 1
1:00 AM
Wed, Dec 1
2:00 AM
Condition
Clouds

Clouds

Clouds

Clouds

Clouds

Clouds

Clouds

Clouds

Clouds

Clouds

Clouds

Clouds

Clouds

Clouds

Clouds

Clouds

Clouds

Clear

Clear

Clear

Clear

Clear

Clear

Clear

Clear

Clear

Clear

Clear

Clear

Clear

Clear

Clear

Clear

Clear

Clear

Clouds

Clouds

Clouds

Clouds

Clouds

Clouds

Clouds

Clouds

Clouds

Clouds

Clouds

Clouds

Clouds
Temperature 34°F33°F31°F30°F28°F28°F29°F31°F32°F33°F34°F34°F33°F30°F27°F27°F26°F26°F26°F26°F26°F26°F25°F25°F25°F25°F25°F24°F24°F25°F28°F31°F33°F34°F34°F35°F34°F30°F29°F30°F29°F30°F30°F28°F29°F29°F29°F29°F
Feels Like 29°F27°F25°F23°F21°F20°F21°F23°F24°F25°F25°F26°F25°F22°F19°F18°F17°F17°F16°F16°F15°F15°F14°F14°F13°F13°F13°F14°F14°F16°F19°F22°F24°F26°F27°F28°F27°F23°F23°F24°F24°F24°F25°F24°F23°F22°F22°F22°F
Cloudiness 100%100%100%100%100%100%100%100%100%89%86%91%86%66%57%46%39%3%9%10%9%9%9%6%3%3%3%4%3%2%1%2%3%4%4%59%58%72%79%83%86%100%100%94%93%87%87%67%
Visibility 6 mi6 mi6 mi6 mi6 mi6 mi6 mi6 mi6 mi6 mi6 mi6 mi6 mi6 mi6 mi6 mi6 mi6 mi6 mi6 mi6 mi6 mi6 mi6 mi6 mi6 mi6 mi6 mi6 mi6 mi6 mi6 mi6 mi6 mi6 mi6 mi6 mi6 mi6 mi6 mi6 mi6 mi6 mi6 mi6 mi6 mi6 mi6 mi
Precipitation 0%0%0%0%0%1%2%2%1%1%0%0%0%0%0%0%0%0%0%0%0%0%0%0%0%0%0%0%0%0%0%0%0%0%0%0%0%0%0%0%0%0%0%0%0%0%0%0%
Humidity 76%77%77%78%80%75%71%68%67%65%63%62%62%66%72%75%77%79%80%79%78%78%76%72%71%74%74%74%75%72%65%59%56%53%52%53%57%69%69%67%69%69%70%74%74%78%81%82%
Dew Point 28°F27°F26°F25°F24°F21°F20°F21°F22°F22°F22°F22°F21°F19°F19°F19°F19°F19°F20°F19°F19°F19°F18°F17°F16°F17°F17°F16°F16°F17°F17°F18°F18°F18°F18°F19°F19°F20°F20°F20°F20°F20°F20°F20°F21°F22°F23°F24°F
Pressure 29.85"29.85"29.85"29.85"29.88"29.88"29.85"29.85"29.83"29.8"29.77"29.77"29.77"29.8"29.8"29.8"29.8"29.8"29.8"29.8"29.8"29.77"29.8"29.8"29.83"29.83"29.83"29.83"29.83"29.83"29.85"29.85"29.83"29.83"29.83"29.83"29.83"29.85"29.85"29.88"29.88"29.88"29.88"29.88"29.88"29.88"29.88"29.88"
Wind Speed 5.1 mph5.8 mph6.1 mph7.2 mph7.5 mph8.4 mph9.3 mph9.8 mph10.9 mph11.2 mph11.5 mph10.8 mph10.8 mph8.9 mph8.3 mph8.8 mph8.9 mph8.8 mph9.8 mph10.3 mph12.1 mph13.1 mph12.9 mph12.9 mph13.2 mph12.5 mph12.4 mph10.7 mph9 mph8.6 mph10.2 mph9.8 mph10.8 mph10.7 mph9.9 mph8.7 mph7.3 mph5.9 mph6.4 mph5.8 mph5.3 mph4.7 mph4.1 mph4.2 mph5.1 mph5.9 mph6.4 mph7.1 mph
Wind
Direction
24°
NNE
19°
NNE
20°
NNE
16°
NNE
17°
NNE
14°
NNE

N

N
359°
N
355°
N
359°
N
352°
N
355°
N
353°
N
344°
NNW
334°
NNW
335°
NNW
333°
NNW
323°
NW
324°
NW
323°
NW
319°
NW
318°
NW
316°
NW
320°
NW
319°
NW
314°
NW
309°
NW
297°
WNW
285°
WNW
283°
WNW
285°
WNW
281°
W
286°
WNW
276°
W
269°
W
259°
W
254°
WSW
253°
WSW
251°
WSW
248°
WSW
241°
WSW
238°
WSW
229°
SW
233°
SW
240°
WSW
239°
WSW
237°
WSW

Daily Forecast

Date High Low Precip. Humidity
Today
Nov 29

Clouds
34 °F
26 °F
2%
67%
Tuesday
Nov 30

Clear
35 °F
24 °F
0%
56%
Wednesday
Dec 1

Clouds
39 °F
29 °F
0%
67%
Thursday
Dec 2

Rain
47 °F
30 °F
100%
80%
Friday
Dec 3

Rain
46 °F
23 °F
100%
70%
Saturday
Dec 4

Clouds
29 °F
20 °F
0%
43%
Sunday
Dec 5

Clouds
30 °F
24 °F
0%
47%
Monday
Dec 6

Snow
26 °F
24 °F
100%
76%
Tuesday
Dec 7

Snow
30 °F
16 °F
100%
87%
Wednesday
Dec 8

Clouds
43 °F
11 °F
0%
70%
Thursday
Dec 9

Rain
51 °F
34 °F
100%
100%
Friday
Dec 10

Clouds
34 °F
28 °F
0%
70%
Saturday
Dec 11

Rain
46 °F
27 °F
78%
69%
Sunday
Dec 12

Rain
57 °F
36 °F
100%
96%
Monday
Dec 13

Clouds
39 °F
33 °F
0%
61%
Tuesday
Dec 14

Clouds
33 °F
29 °F
0%
54%

Temperature 8-14 Day Outlook



Precipitation 8-14 Day Outlook




Quick Links
Searsport News
Searsport Photos
Searsport Videos




About Us
Contact Us
Site Map
Search Site
Advertise With Us
   
Searsport.USCoast.info
THE SEARSPORT WEBSITE

Copyright 2021, Coastal Town
Privacy    |    Legal